Miscellaneous Local Product
Issued by NWS North Platte, NE

Home | Current Version | Previous Version | Graphics & Text | Print | Product List | Glossary On
Versions: 1 2 3 4 5 6 7 8 9 10 11 12 13 14 15 16 17 18 19 20 21 22 23 24 25 26 27 28 29 30 31 32 33 34 35 36 37 38 39 40 41 42 43 44 45 46 47 48 49 50
000
AXUS43 KLBF 242110
MISLBF


WESTERN AND NORTH CENTRAL NEBRASKA HOURLY WEATHER ROUNDUP
NATIONAL WEATHER SERVICE NORTH PLATTE NE
400 PM CDT SUN JUL 24 2016

NOTE: "FAIR" INDICATES FEW OR NO CLOUDS BELOW 12,000 FEET WITH NO
SIGNIFICANT WEATHER AND/OR OBSTRUCTIONS TO VISIBILITY.

NOTE: STATIONS NOT REPORTING VARIABLES SUCH AS SKY/WEATHER OR
PRESSURE ARE PROVIDED BY RAWS AND APRS NETWORKS AND ARE NOT UNDER
NATIONAL WEATHER SERVICE QUALITY CONTROL.

...OBSERVATIONS IN AND NEAR THE EASTERN PANHANDLE OF NEBRASKA...

CITY           SKY/WX    TMP DP  RH WIND       PRES   REMARKS
PINE RIDGE     PTSUNNY   84  47  27 E9        30.12F
CHADRON        SUNNY     89  44  20 SE12G23   30.10F
ALLIANCE       CLOUDY    83  52  34 SE17G23   30.14F
SIDNEY         SUNNY     86  53  32 SE13G24   30.17S
CRESCENT LAKE    N/A     83  53  35 SE7G20      N/A
$$

...OBSERVATIONS IN NORTHERN NEBRASKA AND FAR SOUTHERN SOUTH DAKOTA...

CITY           SKY/WX    TMP DP  RH WIND       PRES   REMARKS
WINNER         FAIR      86  52  30 CALM      30.10F
VALENTINE      SUNNY     86  46  24 N6        30.11F
THEDFORD       SUNNY     87  53  31 E14       30.12F
AINSWORTH      SUNNY     82  58  42 NE3       30.11F
O`NEILL        CLOUDY    81  52  35 NW5       30.10F
ORD            CLOUDY    85  59  41 NE9       30.07R
BROKEN BOW     MOSUNNY   80  63  55 NE8       30.08F
VALENTINE NWR    N/A     83  55  37 E5          N/A
BUTTE            N/A     80  58  47 N3G13       N/A
HALSEY           N/A     84  55  36 E5G12       N/A
EWING            N/A     80  67  63 CALM        N/A
$$

...OBSERVATIONS IN SOUTHWEST NEBRASKA AND FAR NORTHEAST COLORADO...

CITY           SKY/WX    TMP DP  RH WIND       PRES   REMARKS
WRAY           FAIR      90  54  29 E14G21    30.10S
HOLYOKE        FAIR      86  55  35 W13       30.12F
IMPERIAL       SUNNY     88  53  30 E9        30.09R
OGALLALA       SUNNY     85  48  28 E13G18    30.13S
NORTH PLATTE   CLOUDY    85  61  44 E15       30.09R
MCCOOK         SUNNY     89  58  34 E25       30.04F
LEXINGTON      SUNNY     84  56  37 E16G26    30.05F
STAPLETON        N/A     82  62  50 MISG        N/A
GOTHENBURG       N/A     82  54  37 E14         N/A
CALLAWAY         N/A     79  62  56 E10         N/A
$$

...OBSERVATIONS IN CENTRAL LINCOLN COUNTY AREA...

CITY           SKY/WX    TMP DP  RH WIND       PRES   REMARKS
N.P. AIRPORT   CLOUDY    85  61  44 E15       30.09R
N.P. DOWNTOWN    N/A     83  61  46 NE12        N/A
N.P. SOUTHEAST   N/A     84  60  44 NE3         N/A
N.P. HILLCREST   N/A     82  60  46 E15         N/A
$$

...SOME OBSERVATIONS FROM AROUND THE REGION...

CITY           SKY/WX    TMP DP  RH WIND       PRES   REMARKS
DENVER         MOSUNNY   92  38  15 CALM      30.10F
LARAMIE        CLOUDY    78  31  17 E7        30.28F
CHEYENNE       TSTM      72  53  51 W20G26    30.28R
SCOTTSBLUFF    MOSUNNY   81  54  39 E17       30.11F
RAPID CITY     MOSUNNY   86  48  26 S8        30.11F
BISMARCK       SUNNY     85  54  34 NW18G25   30.03S
PIERRE         CLOUDY    82  52  35 W8        30.05R
SIOUX FALLS    PTSUNNY   79  66  64 NW9       30.04F
OMAHA          CLOUDY    85  70  60 NW8       30.01R
GRAND ISLAND   SUNNY     88  60  38 NE17      30.05F
KANSAS CITY    CLOUDY    92  74  55 W3        29.95R HX 101
WICHITA        PTSUNNY   99  69  37 CALM      29.91S HX 105
OKLAHOMA CITY  MOSUNNY   98  65  33 SW8       29.93F HX 101
DALLAS         MOSUNNY   97  69  40 E10       29.90F HX 103
AMARILLO       SUNNY     98  55  23 E6        30.03F HX  96
DODGE CITY     CLOUDY    90  64  42 S3        29.98F HX  91
HAYS           SUNNY     91  66  43 NE20G25   29.99R HX  94
GOODLAND       LGT RAIN  91  57  31 E18G24    30.08F
$$




USA.gov is the U.S. government's official web portal to all federal, state and local government web resources and services.